Wind_Speed
47 46 45 43 43 42 42 43 43 43 43 43 43 44 44 43 43 42 42 42 42 43 43 43 43 44 44 45 46 46 47 48 49 50 51 51 52 57 62 63 61 60
50 49 48 47 46 45 44 44 44 44 45 45 45 45 45 45 45 44 44 43 44 44 44 45 45 45 46 46 47 48 49 49 50 51 51 52 52 54 61 66 66 65
52 51 51 50 49 49 48 47 46 46 46 46 46 46 46 47 47 47 46 46 46 45 45 45 46 47 47 48 49 49 50 52 52 53 53 54 55 55 57 62 67 69
56 54 53 52 52 51 51 50 50 49 48 47 48 48 48 48 49 48 48 48 48 47 47 47 48 48 49 49 50 51 52 53 54 55 56 57 58 58 58 60 63 67
60 59 57 56 54 54 53 53 52 52 51 50 50 50 50 50 50 51 50 50 50 50 50 50 50 50 50 51 51 52 53 54 56 57 58 59 60 61 61 62 63 64
63 63 61 59 58 57 56 55 54 54 54 53 53 52 52 52 52 53 53 53 53 52 52 52 52 52 53 53 53 54 55 56 57 58 59 60 61 63 64 65 65 66
64 65 64 62 61 60 59 57 56 56 56 56 56 55 55 55 55 55 55 55 56 56 55 55 55 55 55 55 56 56 57 58 59 60 61 62 63 64 65 66 67 68
65 65 65 65 65 64 62 60 59 59 59 59 59 59 59 59 59 58 58 58 59 59 59 58 58 58 58 58 59 59 60 60 61 61 62 64 65 66 66 67 68 69
67 67 67 67 67 66 65 63 62 61 61 61 62 62 62 62 62 62 62 62 62 63 63 62 62 61 61 61 62 62 62 62 63 63 64 65 66 67 68 69 70 71
71 71 70 68 68 67 67 65 64 64 63 64 64 65 65 65 65 65 65 65 66 66 66 66 65 65 64 64 64 64 64 64 65 65 65 65 66 67 68 70 71 72
77 76 73 72 70 69 68 68 67 66 66 67 67 68 68 69 69 69 69 69 69 69 69 69 69 68 68 68 67 67 67 67 67 67 67 67 67 68 70 71 72 73
80 79 77 76 75 73 72 70 69 68 68 69 69 70 72 73 73 72 72 72 72 72 72 72 71 71 71 71 71 70 70 70 70 69 69 69 70 71 72 72 73 73
81 81 81 80 79 77 76 74 72 71 71 71 71 73 75 76 76 75 75 75 76 75 75 75 74 74 74 74 74 74 73 73 73 73 73 73 74 74 74 74 74 74
81 82 82 82 81 80 79 77 76 75 75 74 74 76 78 79 78 78 78 79 79 78 77 77 77 77 77 77 77 77 77 76 76 76 76 77 77 77 77 77 77 77
81 82 82 82 82 81 80 79 79 79 79 78 78 79 81 81 81 80 81 81 81 79 79 79 79 79 79 80 80 80 80 79 79 80 80 80 80 80 80 80 80 81
80 81 82 82 82 82 81 79 79 80 80 80 82 84 85 85 84 84 84 84 83 81 81 80 81 81 81 81 82 82 82 82 83 83 83 82 82 82 83 83 83 83
81 81 82 83 83 82 80 79 79 81 81 82 84 87 88 88 87 87 88 88 87 85 84 83 82 83 83 83 83 83 84 84 85 85 85 85 85 85 85 85 85 84
81 82 82 83 83 82 79 74 74 77 80 83 87 89 90 90 90 90 91 91 91 90 89 87 86 86 85 84 84 85 85 86 86 86 87 86 86 87 87 87 87 86
79 81 83 83 82 81 77 72 71 74 78 82 87 90 91 92 92 93 94 94 94 93 92 91 90 89 89 88 88 88 88 87 87 87 87 87 88 88 88 88 88 88
78 79 81 82 82 80 77 75 77 78 78 82 87 89 90 92 93 93 94 95 95 96 95 94 93 92 91 91 92 92 91 91 90 89 89 90 90 90 90 90 89 89
76 77 77 79 79 79 77 76 77 78 80 83 86 87 89 91 92 92 92 94 96 98 99 97 95 93 93 94 94 94 94 93 93 93 93 93 93 94 93 93 93 92
74 74 73 73 75 76 76 75 75 78 84 86 86 87 88 88 90 91 92 94 96 98 100 99 97 96 95 96 96 95 95 95 95 95 95 96 96 97 97 96 95 95
71 70 69 69 69 70 71 74 76 79 83 85 86 87 87 87 89 91 92 93 94 97 100 99 98 97 97 96 96 96 96 96 95 95 96 97 98 98 98 97 97 96
67 67 66 65 65 65 68 72 75 77 79 81 83 85 86 87 90 91 92 92 93 97 99 99 98 98 97 95 94 94 94 95 96 96 96 97 97 98 97 97 96 95
61 62 62 62 63 63 65 69 72 74 75 77 80 83 85 87 89 90 90 90 92 96 99 99 98 98 97 94 90 88 88 90 91 92 93 94 95 96 96 95 94 93
56 56 57 58 61 62 64 67 70 72 74 76 79 82 84 85 86 87 88 89 91 95 98 99 99 99 98 95 89 85 83 83 84 85 86 87 88 89 90 91 91 91
Wind_Direction
260 259 259 258 258 257 256 256 255 255 254 253 252 252 251 251 251 251 250 249 248 247 247 247 246 244 242 240 239 238 237 236 236 237 238 236 232 227 226 226 227 228
260 259 258 257 257 257 257 256 256 255 255 254 253 252 251 251 251 251 251 250 250 249 248 248 247 247 245 243 241 240 239 238 238 238 239 240 238 233 228 228 229 228
260 259 258 257 257 256 256 256 256 256 255 254 253 253 252 251 250 250 250 250 251 250 250 249 248 248 247 246 244 242 241 239 239 239 240 241 241 240 235 232 232 232
259 258 258 257 256 255 255 254 254 255 255 254 254 253 252 252 251 250 250 249 249 250 250 250 249 248 248 247 247 245 244 242 241 240 240 240 241 242 241 238 237 236
259 258 257 256 255 255 254 254 253 253 253 253 253 252 252 252 252 251 251 250 249 249 249 249 249 249 248 248 248 247 246 245 244 243 241 241 241 242 242 241 241 240
259 259 258 257 256 255 254 254 254 253 253 252 251 251 251 251 251 251 251 251 250 250 249 248 248 248 248 248 248 248 248 247 246 246 245 243 243 242 242 243 242 242
257 258 258 258 257 256 256 255 254 254 254 253 252 251 251 250 250 250 250 250 250 250 250 249 249 248 247 247 247 247 247 247 247 247 247 246 245 245 244 244 244 243
256 256 257 257 257 256 256 255 255 255 255 255 254 253 251 251 250 250 250 250 250 249 250 249 249 249 248 247 247 246 246 246 246 246 247 247 247 247 247 246 246 245
257 256 255 255 255 256 255 255 255 255 255 255 255 254 253 252 251 250 250 250 249 249 249 248 249 249 249 248 248 247 247 246 246 246 246 246 246 247 247 248 248 247
257 256 255 254 254 255 255 255 255 254 254 254 255 255 254 253 252 251 250 250 250 249 249 249 248 248 248 248 248 248 248 248 248 247 247 247 247 247 247 248 248 248
257 256 255 255 254 254 254 254 254 254 254 253 254 254 254 254 253 252 251 250 250 250 250 250 249 249 249 249 248 249 249 249 249 249 250 249 249 249 249 248 249 249
258 257 256 254 254 253 253 252 253 253 253 253 253 253 253 253 253 253 252 251 251 251 251 251 251 251 250 250 250 250 250 250 250 250 251 251 251 251 251 251 251 252
258 257 256 255 254 253 252 252 252 252 252 252 252 252 252 253 253 253 253 253 252 252 252 252 252 252 252 252 252 251 251 251 251 251 251 251 251 252 252 253 254 254
259 259 258 257 255 254 253 252 252 251 251 251 251 251 252 252 252 252 252 252 252 253 253 253 253 253 253 253 253 253 253 253 253 252 252 252 252 253 253 254 254 255
259 259 259 258 257 256 254 253 253 252 252 251 251 251 251 251 251 251 251 251 251 252 252 253 253 254 254 254 254 254 254 254 254 254 254 254 254 254 254 254 255 255
259 258 258 258 258 257 256 255 254 253 253 253 252 252 252 252 251 251 251 251 251 251 251 251 252 252 253 254 254 255 255 255 255 256 256 256 256 256 256 256 256 256
260 259 258 258 257 257 256 256 256 255 254 253 253 252 252 251 251 251 251 252 251 251 250 250 250 251 251 252 253 254 254 255 255 256 256 257 257 257 257 257 257 257
261 261 259 258 257 256 255 255 257 257 255 254 253 252 252 251 251 251 251 251 251 251 251 250 250 250 251 251 252 252 253 254 254 255 256 257 257 258 258 258 259 259
259 260 260 259 258 256 254 251 250 251 252 252 251 251 251 251 251 251 251 251 251 251 251 251 251 251 252 252 252 252 252 253 253 254 255 256 257 257 258 258 259 259
256 257 258 259 259 257 255 251 248 249 250 251 251 251 251 251 251 251 252 253 253 252 251 251 251 251 252 253 253 253 254 254 254 255 255 256 256 257 257 258 258 259
255 255 255 257 258 258 256 253 251 250 249 249 251 251 251 252 252 252 253 253 254 254 253 252 251 251 252 253 253 254 255 255 256 256 256 256 257 257 257 258 258 259
256 255 254 255 255 257 257 255 253 250 248 248 250 251 252 253 254 254 254 254 255 256 256 256 254 253 252 253 253 254 255 256 256 256 257 257 257 258 258 258 259 259
256 256 255 254 254 254 255 255 253 252 251 251 252 252 252 252 253 254 255 256 257 258 259 259 259 257 255 255 255 255 256 256 257 257 258 258 259 259 260 260 261 261
255 256 256 256 255 253 252 253 253 253 254 254 254 254 252 251 252 253 255 256 257 258 259 259 260 259 259 258 257 256 256 256 257 258 259 259 260 261 262 263 263 264
253 254 254 255 255 253 252 253 253 253 253 253 253 253 252 252 252 253 254 254 255 256 258 258 259 260 261 261 260 259 258 257 257 258 259 260 261 262 262 263 264 264
253 252 252 252 252 252 251 252 252 252 251 251 251 251 251 252 252 253 253 253 254 256 258 259 260 261 263 264 266 266 265 263 262 262 262 263 263 263 262 262 262 263
Height
10570 10572 10574 10576 10577 10579 10580 10582 10584 10585 10587 10589 10590 10592 10593 10594 10596 10598 10600 10602 10603 10605 10607 10608 10610 10612 10614 10615 10617 10618 10620 10621 10623 10624 10625 10627 10630 10632 10634 10636 10637 10638
10563 10566 10568 10570 10572 10573 10575 10577 10579 10581 10583 10584 10586 10587 10589 10590 10591 10593 10595 10596 10598 10600 10602 10604 10605 10607 10609 10610 10612 10613 10615 10616 10618 10619 10620 10622 10624 10626 10628 10630 10631 10633
10556 10558 10561 10563 10565 10567 10569 10571 10573 10575 10577 10579 10581 10582 10584 10585 10586 10588 10589 10591 10592 10594 10596 10598 10600 10602 10603 10605 10607 10608 10610 10611 10612 10614 10615 10616 10617 10619 10621 10623 10625 10626
10548 10550 10553 10556 10558 10560 10563 10565 10567 10569 10571 10573 10575 10577 10578 10579 10580 10582 10583 10585 10587 10588 10590 10592 10594 10595 10597 10599 10600 10602 10604 10605 10606 10608 10609 10610 10611 10613 10614 10616 10618 10619
10539 10542 10544 10547 10550 10553 10555 10558 10560 10562 10564 10566 10568 10570 10571 10573 10574 10576 10577 10578 10580 10581 10583 10585 10586 10588 10590 10592 10594 10595 10597 10598 10600 10601 10603 10604 10605 10606 10607 10609 10610 10612
10533 10534 10537 10539 10542 10545 10548 10551 10553 10555 10557 10559 10561 10563 10564 10566 10567 10568 10570 10571 10572 10574 10576 10578 10579 10581 10582 10584 10586 10588 10589 10591 10592 10594 10595 10597 10598 10599 10600 10601 10603 10604
10527 10528 10530 10532 10534 10536 10540 10543 10547 10548 10550 10552 10553 10555 10556 10558 10559 10560 10562 10563 10564 10566 10567 10569 10571 10573 10574 10576 10577 10579 10580 10582 10583 10585 10587 10588 10590 10591 10592 10593 10595 10596
10520 10521 10522 10524 10525 10528 10531 10535 10538 10541 10543 10544 10546 10547 10548 10549 10551 10552 10553 10554 10555 10556 10558 10560 10562 10564 10566 10567 10568 10569 10571 10572 10574 10576 10578 10579 10581 10582 10583 10585 10586 10588
10510 10512 10514 10515 10517 10519 10522 10525 10529 10532 10534 10535 10537 10538 10539 10541 10541 10542 10543 10544 10545 10546 10548 10550 10552 10554 10556 10558 10559 10560 10561 10563 10565 10566 10568 10570 10571 10573 10574 10575 10577 10578
10497 10499 10502 10506 10508 10511 10513 10517 10520 10522 10524 10525 10526 10527 10529 10530 10531 10532 10533 10534 10534 10536 10537 10540 10543 10545 10547 10548 10549 10551 10553 10554 10556 10558 10559 10561 10563 10564 10565 10566 10566 10567
10483 10486 10492 10495 10498 10501 10504 10507 10509 10512 10514 10515 10515 10516 10517 10518 10519 10521 10522 10523 10524 10525 10527 10530 10532 10535 10537 10539 10540 10542 10543 10545 10547 10549 10551 10553 10554 10555 10555 10556 10556 10557
10470 10474 10479 10483 10486 10490 10493 10496 10500 10502 10504 10505 10506 10506 10505 10506 10507 10509 10511 10512 10513 10515 10517 10520 10522 10524 10527 10529 10531 10533 10534 10536 10538 10540 10542 10544 10545 10545 10545 10546 10547 10549
10458 10461 10465 10469 10473 10477 10480 10485 10490 10492 10493 10495 10496 10495 10493 10493 10496 10499 10500 10501 10502 10505 10507 10510 10512 10515 10517 10519 10521 10523 10524 10526 10528 10530 10532 10533 10534 10534 10536 10537 10539 10540
10445 10448 10451 10456 10460 10463 10468 10474 10478 10480 10482 10484 10484 10483 10482 10482 10484 10487 10488 10489 10491 10495 10498 10501 10503 10504 10506 10508 10510 10512 10514 10516 10518 10520 10521 10522 10523 10525 10527 10528 10530 10531
10434 10436 10439 10443 10447 10450 10455 10461 10465 10467 10470 10472 10472 10471 10469 10470 10473 10475 10475 10477 10480 10484 10488 10490 10492 10493 10495 10497 10499 10501 10503 10505 10507 10508 10510 10512 10513 10515 10517 10518 10519 10520
10423 10424 10426 10429 10433 10438 10443 10448 10452 10455 10458 10459 10458 10456 10455 10457 10461 10462 10463 10465 10468 10472 10475 10477 10479 10481 10482 10484 10487 10490 10492 10494 10495 10497 10499 10501 10502 10504 10505 10507 10508 10510
10411 10413 10414 10416 10420 10425 10431 10437 10440 10442 10445 10446 10443 10441 10441 10443 10447 10449 10450 10452 10455 10459 10462 10464 10466 10467 10469 10472 10475 10477 10479 10481 10483 10485 10487 10489 10490 10492 10493 10495 10497 10499
10398 10400 10402 10404 10407 10412 10421 10430 10431 10429 10430 10429 10426 10425 10426 10429 10433 10435 10436 10438 10441 10445 10448 10450 10452 10454 10456 10460 10462 10464 10466 10468 10470 10472 10474 10477 10479 10480 10482 10483 10485 10487
10386 10387 10388 10391 10394 10399 10410 10419 10417 10412 10412 10410 10407 10408 10411 10415 10418 10419 10420 10423 10427 10430 10433 10436 10439 10442 10445 10447 10449 10451 10453 10456 10458 10461 10463 10465 10466 10468 10470 10471 10473 10475
10376 10376 10377 10379 10382 10387 10396 10401 10400 10398 10398 10394 10391 10394 10398 10400 10403 10405 10408 10410 10412 10414 10417 10422 10426 10430 10433 10435 10437 10438 10440 10443 10447 10450 10451 10452 10453 10455 10457 10459 10460 10462
10366 10367 10368 10370 10371 10375 10380 10385 10388 10389 10384 10379 10378 10381 10385 10388 10391 10394 10396 10397 10397 10398 10401 10406 10413 10418 10420 10421 10424 10426 10428 10431 10434 10437 10438 10439 10440 10441 10442 10444 10446 10449
10355 10357 10360 10362 10362 10365 10368 10371 10375 10374 10368 10367 10370 10372 10375 10378 10379 10381 10384 10385 10386 10387 10387 10391 10398 10404 10407 10408 10411 10414 10416 10419 10421 10423 10424 10426 10427 10427 10428 10431 10433 10435
10346 10349 10352 10354 10355 10357 10358 10357 10359 10359 10358 10360 10363 10364 10367 10369 10368 10369 10372 10376 10377 10376 10374 10377 10382 10387 10392 10395 10398 10402 10404 10406 10408 10410 10411 10413 10414 10414 10416 10418 10420 10422
10339 10342 10344 10346 10347 10349 10348 10345 10347 10349 10351 10353 10354 10355 10356 10357 10357 10359 10362 10364 10365 10362 10360 10363 10368 10372 10376 10380 10385 10389 10392 10394 10396 10397 10399 10400 10401 10402 10404 10405 10406 10408
10333 10335 10337 10338 10338 10339 10339 10337 10338 10340 10341 10343 10343 10343 10343 10345 10347 10349 10351 10352 10352 10349 10348 10351 10356 10358 10361 10365 10370 10376 10380 10383 10385 10386 10387 10388 10389 10391 10391 10392 10393 10393
10324 10328 10330 10330 10329 10329 10330 10329 10328 10328 10329 10331 10330 10330 10332 10334 10337 10339 10341 10342 10342 10339 10338 10341 10344 10347 10349 10353 10359 10364 10368 10372 10374 10375 10376 10376 10378 10378 10379 10378 10378 10379